Location: Bucaritos
(10.0779°N, 67.0369°W)
Time: 16:24:42
(UTC+00:00)

ARIANE DEB (SPELDA) - Pass Details

Date: 27 June 2022
Orbit: 358 x 32582 km, 3.9° (Epoch: 08 August)

Event Time Altitude Azimuth Distance (km) Brightness Sun altitude
Rises 23:44:53 0° 235° (SW) 2,197 5.8 -12.5°
Reaches altitude 10° 23:48:02 10° 181° (S) 1,435 4.2 -13.2°
Enters shadow 23:48:29 10° 171° (S) 1,474 4.2 -13.3°
